STARLINK-31598, 59263

Orbit data source: Space-Track

STARLINK-31598, 59263 is a payload satellite owned by SpaceX/Seattle (US) in LEO that was launched on Tue, 19 Mar 2024 UTC via an FALCON 9 launch vehicle from the Air Force Western Test Range (AFWTR). Payload-class satellites include a variety of spacecraft equipped with specific instruments for various scientific and technological missions. These include communications satellites like Starlink; space stations such as the ISS; scientific satellites like the Hubble; Earth observation satellites from companies like Planet Labs, Umbra, and HawkEye 360; GPS; miniature CubeSats for education and research; and military/defense satellites.

Loading next visibility...
Identifier
59263, 2024-050K
Orbit
LEO
Country
Flag of USUS
Related business
Manufacturer
SpaceX/Seattle
Mission
Operational Commercial Communications
Bus & Motor
STARLINK V2M, Unknown motor
Mass
730 kg wet, ~700 kg dry
Launch date (UTC)
2024-03-19 (2 years ago)
Launch vehicle
FALCON 9
Launch site
Air Force Western Test Range (AFWTR)
Object type
Payload
Rocket body
Debris
Shape & HBR
Box + 2 Pan, 17.7 m
Radar Cross Section
33.884 m², Large (>1 m²)

Expand to show TLE details & history
Last TLE update: 2 days ago

TLE from 2 days ago
0 STARLINK-31598
1 59263U 24050K   26171.40212751  .00001770  00000-0  63496-4 0  9992
2 59263  53.1617  63.9293 0001214  83.9014 276.2127 15.34403773126277
Epoch: 2026-06-20T09:39Z
TLE epoch observation values (Epoch: 2026-06-20T09:39:03.816Z)
Latitude
-0.00003°
Longitude
10.54611°
Altitude
463.504 km
Speed
7.636 km/s
True Right ascension
04h 15m 43s
True Declination
0° 00' 00"
Sunlit
Object was in daylight at epoch
Visualization orbit readout
Latitude
Unknown
Longitude
Unknown
Altitude
Unknown
Speed
Unknown
Apparent Right ascension
Unknown
Apparent Declination
Unknown
Sunlit
N/A
Visualization observer readout
Local Sidereal Time
21:25:15
Azimuth
Unknown
Elevation
Unknown
Doppler factor
Unknown
Orbital elements
Apogee altitude
463.779 km
Perigee altitude
462.118 km
Semi-major axis
6,841.086 km
Eccentricity
0.00012
Inclination
53.1617°
RAAN
63.9293°
Arg. of periapsis
83.9014°
True anomaly
276.19887°
Mean anomaly
276.2127°
Eccentric anomaly
276.20579°
Mean motion
3.8358 °/min
Orbital period
93.85 mins
BSTAR
0.000063496
Loading maneuver chart data...
Computing Atmospheric mass density...
Loading historical data...
Loading historical data...
Loading historical data...
Loading historical data...
Loading historical data...
Loading historical data...
Loading historical data...

Documentation

Showing up to 5 results
|